Year,Month,Day,Hour,Minute,Value (Times are PST for temperature in C)
2019,10,01,00,00,4.40
2019,10,01,00,01,4.40
2019,10,01,00,02,4.40
2019,10,01,00,03,4.40
2019,10,01,00,04,4.50
2019,10,01,00,05,4.50
2019,10,01,00,06,4.50
2019,10,01,00,07,4.50
2019,10,01,00,08,4.40
2019,10,01,00,09,4.40
2019,10,01,00,10,4.40
2019,10,01,00,11,4.40
2019,10,01,00,12,4.40
2019,10,01,00,13,4.40
2019,10,01,00,14,4.30
2019,10,01,00,15,4.30
2019,10,01,00,16,4.30
2019,10,01,00,17,4.30
2019,10,01,00,18,4.30
2019,10,01,00,19,4.30
2019,10,01,00,20,4.30
2019,10,01,00,21,4.30
2019,10,01,00,22,4.30
2019,10,01,00,23,4.30
2019,10,01,00,24,4.30
2019,10,01,00,25,4.30
2019,10,01,00,26,4.30
2019,10,01,00,27,4.30
2019,10,01,00,28,4.30
2019,10,01,00,29,4.20
2019,10,01,00,30,4.30
2019,10,01,00,31,4.20
2019,10,01,00,32,4.20
2019,10,01,00,33,4.20
2019,10,01,00,34,4.20
2019,10,01,00,35,4.20
2019,10,01,00,36,4.20
2019,10,01,00,37,4.20
2019,10,01,00,38,4.20
2019,10,01,00,39,4.20
2019,10,01,00,40,4.10
2019,10,01,00,41,4.10
2019,10,01,00,42,4.10
2019,10,01,00,43,4.10
2019,10,01,00,44,4.10
2019,10,01,00,45,4.10
2019,10,01,00,46,4.10
2019,10,01,00,47,4.10
2019,10,01,00,48,4.10
2019,10,01,00,49,4.10
2019,10,01,00,50,4.10
2019,10,01,00,51,4.10
2019,10,01,00,52,4.10
2019,10,01,00,53,4.10
2019,10,01,00,54,4.10
2019,10,01,00,55,4.10
2019,10,01,00,56,4.00
2019,10,01,00,57,4.00
2019,10,01,00,58,3.90
2019,10,01,00,59,3.90
2019,10,01,01,00,3.90
2019,10,01,01,01,3.90
2019,10,01,01,02,3.90
2019,10,01,01,03,3.90
2019,10,01,01,04,3.90
2019,10,01,01,05,3.80
2019,10,01,01,06,3.80
2019,10,01,01,07,3.80
2019,10,01,01,08,3.80
2019,10,01,01,09,3.80
2019,10,01,01,10,3.80
2019,10,01,01,11,3.80
2019,10,01,01,12,3.70
2019,10,01,01,13,3.70
2019,10,01,01,14,3.70
2019,10,01,01,15,3.70
2019,10,01,01,16,3.70
2019,10,01,01,17,3.70
2019,10,01,01,18,3.70
2019,10,01,01,19,3.70
2019,10,01,01,20,3.70
2019,10,01,01,21,3.70
2019,10,01,01,22,3.70
2019,10,01,01,23,3.70
2019,10,01,01,24,3.70
2019,10,01,01,25,3.70
2019,10,01,01,26,3.70
2019,10,01,01,27,3.70
2019,10,01,01,28,3.70
2019,10,01,01,29,3.70
2019,10,01,01,30,3.70
2019,10,01,01,31,3.70
2019,10,01,01,32,3.70
2019,10,01,01,33,3.70
2019,10,01,01,34,3.70
2019,10,01,01,35,3.70
2019,10,01,01,36,3.70
2019,10,01,01,37,3.60
2019,10,01,01,38,3.60
2019,10,01,01,39,3.60
2019,10,01,01,40,3.70
2019,10,01,01,41,3.70
2019,10,01,01,42,3.70
2019,10,01,01,43,3.70
2019,10,01,01,44,3.70
2019,10,01,01,45,3.70
2019,10,01,01,46,3.70
2019,10,01,01,47,3.70
2019,10,01,01,48,3.80
2019,10,01,01,49,3.80
2019,10,01,01,50,3.80
2019,10,01,01,51,3.80
2019,10,01,01,52,3.80
2019,10,01,01,53,3.80
2019,10,01,01,54,3.80
2019,10,01,01,55,3.80
2019,10,01,01,56,3.80
2019,10,01,01,57,3.80
2019,10,01,01,58,3.80
2019,10,01,01,59,3.80
2019,10,01,02,00,3.80
2019,10,01,02,01,3.80
2019,10,01,02,02,3.80
2019,10,01,02,03,3.80
2019,10,01,02,04,3.80
2019,10,01,02,05,3.80
2019,10,01,02,06,3.80
2019,10,01,02,07,3.80
2019,10,01,02,08,3.80
2019,10,01,02,09,3.80
2019,10,01,02,10,3.80
2019,10,01,02,11,3.80
2019,10,01,02,12,3.80
2019,10,01,02,13,3.80
2019,10,01,02,14,3.80
2019,10,01,02,15,3.80
2019,10,01,02,16,3.80
2019,10,01,02,17,3.80
2019,10,01,02,18,3.70
2019,10,01,02,19,3.70
2019,10,01,02,20,3.70
2019,10,01,02,21,3.70
2019,10,01,02,22,3.70
2019,10,01,02,23,3.70
2019,10,01,02,24,3.70
2019,10,01,02,25,3.70
2019,10,01,02,26,3.70
2019,10,01,02,27,3.70
2019,10,01,02,28,3.70
2019,10,01,02,29,3.70
2019,10,01,02,30,3.70
2019,10,01,02,31,3.70
2019,10,01,02,32,3.70
2019,10,01,02,33,3.70
2019,10,01,02,34,3.70
2019,10,01,02,35,3.70
2019,10,01,02,36,3.70
2019,10,01,02,37,3.70
2019,10,01,02,38,3.70
2019,10,01,02,39,3.70
2019,10,01,02,40,3.80
2019,10,01,02,41,3.80
2019,10,01,02,42,3.80
2019,10,01,02,43,3.80
2019,10,01,02,44,3.80
2019,10,01,02,45,3.80
2019,10,01,02,46,3.80
2019,10,01,02,47,3.80
2019,10,01,02,48,3.80
2019,10,01,02,49,3.80
2019,10,01,02,50,3.80
2019,10,01,02,51,3.70
2019,10,01,02,52,3.70
2019,10,01,02,53,3.70
2019,10,01,02,54,3.70
2019,10,01,02,55,3.70
2019,10,01,02,56,3.70
2019,10,01,02,57,3.70
2019,10,01,02,58,3.70
2019,10,01,02,59,3.70
2019,10,01,03,00,3.70
2019,10,01,03,01,3.70
2019,10,01,03,02,3.60
2019,10,01,03,03,3.60
2019,10,01,03,04,3.60
2019,10,01,03,05,3.60
2019,10,01,03,06,3.60
2019,10,01,03,07,3.60
2019,10,01,03,08,3.60
2019,10,01,03,09,3.60
2019,10,01,03,10,3.60
2019,10,01,03,11,3.50
2019,10,01,03,12,3.50
2019,10,01,03,13,3.50
2019,10,01,03,14,3.50
2019,10,01,03,15,3.50
2019,10,01,03,16,3.50
2019,10,01,03,17,3.40
2019,10,01,03,18,3.50
2019,10,01,03,19,3.50
2019,10,01,03,20,3.50
2019,10,01,03,21,3.50
2019,10,01,03,22,3.50
2019,10,01,03,23,3.50
2019,10,01,03,24,3.50
2019,10,01,03,25,3.50
2019,10,01,03,26,3.50
2019,10,01,03,27,3.50
2019,10,01,03,28,3.50
2019,10,01,03,29,3.40
2019,10,01,03,30,3.40
2019,10,01,03,31,3.40
2019,10,01,03,32,3.40
2019,10,01,03,33,3.40
2019,10,01,03,34,3.40
2019,10,01,03,35,3.30
2019,10,01,03,36,3.30
2019,10,01,03,37,3.30
2019,10,01,03,38,3.30
2019,10,01,03,39,3.30
2019,10,01,03,40,3.30
2019,10,01,03,41,3.30
2019,10,01,03,42,3.40
2019,10,01,03,43,3.40
2019,10,01,03,44,3.40
2019,10,01,03,45,3.40
2019,10,01,03,46,3.40
2019,10,01,03,47,3.40
2019,10,01,03,48,3.30
2019,10,01,03,49,3.30
2019,10,01,03,50,3.30
2019,10,01,03,51,3.30
2019,10,01,03,52,3.30
2019,10,01,03,53,3.30
2019,10,01,03,54,3.20
2019,10,01,03,55,3.20
2019,10,01,03,56,3.20
2019,10,01,03,57,3.20
2019,10,01,03,58,3.20
2019,10,01,03,59,3.20
2019,10,01,04,00,3.20
2019,10,01,04,01,3.20
2019,10,01,04,02,3.20
2019,10,01,04,03,3.30
2019,10,01,04,04,3.30
2019,10,01,04,05,3.30
2019,10,01,04,06,3.30
2019,10,01,04,07,3.30
2019,10,01,04,08,3.30
2019,10,01,04,09,3.30
2019,10,01,04,10,3.30
2019,10,01,04,11,3.20
2019,10,01,04,12,3.20
2019,10,01,04,13,3.20
2019,10,01,04,14,3.20
2019,10,01,04,15,3.20
2019,10,01,04,16,3.10
2019,10,01,04,17,3.10
2019,10,01,04,18,3.10
2019,10,01,04,19,3.10
2019,10,01,04,20,3.10
2019,10,01,04,21,3.10
2019,10,01,04,22,3.10
2019,10,01,04,23,3.10
2019,10,01,04,24,3.10
2019,10,01,04,25,3.10
2019,10,01,04,26,3.10
2019,10,01,04,27,3.10
2019,10,01,04,28,3.10
2019,10,01,04,29,3.10
2019,10,01,04,30,3.20
2019,10,01,04,31,3.20
2019,10,01,04,32,3.10
2019,10,01,04,33,3.10
2019,10,01,04,34,3.10
2019,10,01,04,35,3.10
2019,10,01,04,36,3.10
2019,10,01,04,37,3.10
2019,10,01,04,38,3.10
2019,10,01,04,39,3.00
2019,10,01,04,40,3.00
2019,10,01,04,41,3.00
2019,10,01,04,42,2.90
2019,10,01,04,43,2.90
2019,10,01,04,44,2.90
2019,10,01,04,45,2.90
2019,10,01,04,46,2.80
2019,10,01,04,47,2.80
2019,10,01,04,48,2.80
2019,10,01,04,49,2.80
2019,10,01,04,50,2.80
2019,10,01,04,51,2.80
2019,10,01,04,52,2.80
2019,10,01,04,53,2.80
2019,10,01,04,54,2.80
2019,10,01,04,55,2.80
2019,10,01,04,56,2.80
2019,10,01,04,57,2.80
2019,10,01,04,58,2.80
2019,10,01,04,59,2.80
2019,10,01,05,00,2.80
2019,10,01,05,01,2.70
2019,10,01,05,02,2.70
2019,10,01,05,03,2.70
2019,10,01,05,04,2.70
2019,10,01,05,05,2.70
2019,10,01,05,06,2.70
2019,10,01,05,07,2.70
2019,10,01,05,08,2.70
2019,10,01,05,09,2.70
2019,10,01,05,10,2.70
2019,10,01,05,11,2.70
2019,10,01,05,12,2.70
2019,10,01,05,13,2.70
2019,10,01,05,14,2.70
2019,10,01,05,15,2.70
2019,10,01,05,16,2.70
2019,10,01,05,17,2.70
2019,10,01,05,18,2.70
2019,10,01,05,19,2.70
2019,10,01,05,20,2.70
2019,10,01,05,21,2.70
2019,10,01,05,22,2.70
2019,10,01,05,23,2.70
2019,10,01,05,24,2.70
2019,10,01,05,25,2.70
2019,10,01,05,26,2.70
2019,10,01,05,27,2.70
2019,10,01,05,28,2.70
2019,10,01,05,29,2.70
2019,10,01,05,30,2.70
2019,10,01,05,31,2.70
2019,10,01,05,32,2.70
2019,10,01,05,33,2.70
2019,10,01,05,34,2.80
2019,10,01,05,35,2.80
2019,10,01,05,36,2.80
2019,10,01,05,37,2.80
2019,10,01,05,38,2.80
2019,10,01,05,39,2.80
2019,10,01,05,40,2.80
2019,10,01,05,41,2.70
2019,10,01,05,42,2.70
2019,10,01,05,43,2.70
2019,10,01,05,44,2.70
2019,10,01,05,45,2.70
2019,10,01,05,46,2.70
2019,10,01,05,47,2.70
2019,10,01,05,48,2.70
2019,10,01,05,49,2.70
2019,10,01,05,50,2.70
2019,10,01,05,51,2.70
2019,10,01,05,52,2.70
2019,10,01,05,53,2.70
2019,10,01,05,54,2.70
2019,10,01,05,55,2.70
2019,10,01,05,56,2.70
2019,10,01,05,57,2.70
2019,10,01,05,58,2.70
2019,10,01,05,59,2.70
2019,10,01,06,00,2.70
2019,10,01,06,01,2.70
2019,10,01,06,02,2.70
2019,10,01,06,03,2.70
2019,10,01,06,04,2.70
2019,10,01,06,05,2.70
2019,10,01,06,06,2.70
2019,10,01,06,07,2.70
2019,10,01,06,08,2.70
2019,10,01,06,09,2.70
2019,10,01,06,10,2.70
2019,10,01,06,11,2.80
2019,10,01,06,12,2.80
2019,10,01,06,13,2.70
2019,10,01,06,14,2.80
2019,10,01,06,15,2.80
2019,10,01,06,16,2.70
2019,10,01,06,17,2.70
2019,10,01,06,18,2.80
2019,10,01,06,19,2.80
2019,10,01,06,20,2.80
2019,10,01,06,21,2.80
2019,10,01,06,22,2.80
2019,10,01,06,23,2.80
2019,10,01,06,24,2.70
2019,10,01,06,25,2.70
2019,10,01,06,26,2.70
2019,10,01,06,27,2.70
2019,10,01,06,28,2.70
2019,10,01,06,29,2.70
2019,10,01,06,30,2.70
2019,10,01,06,31,2.70
2019,10,01,06,32,2.70
2019,10,01,06,33,2.70
2019,10,01,06,34,2.70
2019,10,01,06,35,2.70
2019,10,01,06,36,2.70
2019,10,01,06,37,2.70
2019,10,01,06,38,2.70
2019,10,01,06,39,2.70
2019,10,01,06,40,2.70
2019,10,01,06,41,2.70
2019,10,01,06,42,2.70
2019,10,01,06,43,2.70
2019,10,01,06,44,2.70
2019,10,01,06,45,2.70
2019,10,01,06,46,2.70
2019,10,01,06,47,2.70
2019,10,01,06,48,2.70
2019,10,01,06,49,2.70
2019,10,01,06,50,2.70
2019,10,01,06,51,2.70
2019,10,01,06,52,2.70
2019,10,01,06,53,2.60
2019,10,01,06,54,2.60
2019,10,01,06,55,2.60
2019,10,01,06,56,2.60
2019,10,01,06,57,2.60
2019,10,01,06,58,2.50
2019,10,01,06,59,2.60
2019,10,01,07,00,2.60
2019,10,01,07,01,2.60
2019,10,01,07,02,2.60
2019,10,01,07,03,2.60
2019,10,01,07,04,2.60
2019,10,01,07,05,2.60
2019,10,01,07,06,2.60
2019,10,01,07,07,2.60
2019,10,01,07,08,2.50
2019,10,01,07,09,2.50
2019,10,01,07,10,2.50
2019,10,01,07,11,2.50
2019,10,01,07,12,2.40
2019,10,01,07,13,2.40
2019,10,01,07,14,2.40
2019,10,01,07,15,2.50
2019,10,01,07,16,2.50
2019,10,01,07,17,2.40
2019,10,01,07,18,2.40
2019,10,01,07,19,2.40
2019,10,01,07,20,2.40
2019,10,01,07,21,2.30
2019,10,01,07,22,2.30
2019,10,01,07,23,2.30
2019,10,01,07,24,2.30
2019,10,01,07,25,2.30
2019,10,01,07,26,2.30
2019,10,01,07,27,2.40
2019,10,01,07,28,2.40
2019,10,01,07,29,2.40
2019,10,01,07,30,2.40
2019,10,01,07,31,2.40
2019,10,01,07,32,2.50
2019,10,01,07,33,2.50
2019,10,01,07,34,2.50
2019,10,01,07,35,2.50
2019,10,01,07,36,2.40
2019,10,01,07,37,2.40
2019,10,01,07,38,2.40
2019,10,01,07,39,2.40
2019,10,01,07,40,2.40
2019,10,01,07,41,2.40
2019,10,01,07,42,2.40
2019,10,01,07,43,2.40
2019,10,01,07,44,2.40
2019,10,01,07,45,2.40
2019,10,01,07,46,2.40
2019,10,01,07,47,2.40
2019,10,01,07,48,2.40
2019,10,01,07,49,2.40
2019,10,01,07,50,2.40
2019,10,01,07,51,2.30
2019,10,01,07,52,2.30
2019,10,01,07,53,2.30
2019,10,01,07,54,2.30
2019,10,01,07,55,2.30
2019,10,01,07,56,2.30
2019,10,01,07,57,2.30
2019,10,01,07,58,2.30
2019,10,01,07,59,2.30
2019,10,01,08,00,2.30
2019,10,01,08,01,2.30
2019,10,01,08,02,2.30
2019,10,01,08,03,2.20
2019,10,01,08,04,2.20
2019,10,01,08,05,2.20
2019,10,01,08,06,2.30
2019,10,01,08,07,2.30
2019,10,01,08,08,2.30
2019,10,01,08,09,2.30
2019,10,01,08,10,2.30
2019,10,01,08,11,2.40
2019,10,01,08,12,2.40
2019,10,01,08,13,2.40
2019,10,01,08,14,2.40
2019,10,01,08,15,2.50
2019,10,01,08,16,2.50
2019,10,01,08,17,2.50
2019,10,01,08,18,2.50
2019,10,01,08,19,2.60
2019,10,01,08,20,2.60
2019,10,01,08,21,2.60
2019,10,01,08,22,2.70
2019,10,01,08,23,2.70
2019,10,01,08,24,2.70
2019,10,01,08,25,2.80
2019,10,01,08,26,2.90
2019,10,01,08,27,3.00
2019,10,01,08,28,3.10
2019,10,01,08,29,3.10
2019,10,01,08,30,3.10
2019,10,01,08,31,3.10
2019,10,01,08,32,3.10
2019,10,01,08,33,3.10
2019,10,01,08,34,3.10
2019,10,01,08,35,3.10
2019,10,01,08,36,3.10
2019,10,01,08,37,3.10
2019,10,01,08,38,3.10
2019,10,01,08,39,3.10
2019,10,01,08,40,3.10
2019,10,01,08,41,3.10
2019,10,01,08,42,3.10
2019,10,01,08,43,3.10
2019,10,01,08,44,3.10
2019,10,01,08,45,3.10
2019,10,01,08,46,3.10
2019,10,01,08,47,3.10
2019,10,01,08,48,3.10
2019,10,01,08,49,3.10
2019,10,01,08,50,3.10
2019,10,01,08,51,3.10
2019,10,01,08,52,3.10
2019,10,01,08,53,3.10
2019,10,01,08,54,3.10
2019,10,01,08,55,3.10
2019,10,01,08,56,3.10
2019,10,01,08,57,3.10
2019,10,01,08,58,3.10
2019,10,01,08,59,3.10
2019,10,01,09,00,3.10
2019,10,01,09,01,3.10
2019,10,01,09,02,3.10
2019,10,01,09,03,3.10
2019,10,01,09,04,3.10
2019,10,01,09,05,3.10
2019,10,01,09,06,3.10
2019,10,01,09,07,3.10
2019,10,01,09,08,3.10
2019,10,01,09,09,3.10
2019,10,01,09,10,3.10
2019,10,01,09,11,3.10
2019,10,01,09,12,3.10
2019,10,01,09,13,3.10
2019,10,01,09,14,3.10
2019,10,01,09,15,3.20
2019,10,01,09,16,3.20
2019,10,01,09,17,3.20
2019,10,01,09,18,3.20
2019,10,01,09,19,3.20
2019,10,01,09,20,3.20
2019,10,01,09,21,3.20
2019,10,01,09,22,3.20
2019,10,01,09,23,3.20
2019,10,01,09,24,3.20
2019,10,01,09,25,3.20
2019,10,01,09,26,3.20
2019,10,01,09,27,3.20
2019,10,01,09,28,3.30
2019,10,01,09,29,3.30
2019,10,01,09,30,3.30
2019,10,01,09,31,3.40
2019,10,01,09,32,3.50
2019,10,01,09,33,3.60
2019,10,01,09,34,3.70
2019,10,01,09,35,3.70
2019,10,01,09,36,3.90
2019,10,01,09,37,4.00
2019,10,01,09,38,4.10
2019,10,01,09,39,4.30
2019,10,01,09,40,4.40
2019,10,01,09,41,4.50
2019,10,01,09,42,4.60
2019,10,01,09,43,4.70
2019,10,01,09,44,4.80
2019,10,01,09,45,4.90
2019,10,01,09,46,5.00
2019,10,01,09,47,5.10
2019,10,01,09,48,5.10
2019,10,01,09,49,5.20
2019,10,01,09,50,5.20
2019,10,01,09,51,5.20
2019,10,01,09,52,5.10
2019,10,01,09,53,5.10
2019,10,01,09,54,5.10
2019,10,01,09,55,5.10
2019,10,01,09,56,5.10
2019,10,01,09,57,5.10
2019,10,01,09,58,5.10
2019,10,01,09,59,5.10
2019,10,01,10,00,5.10
2019,10,01,10,01,5.10
2019,10,01,10,02,5.10
2019,10,01,10,03,5.10
2019,10,01,10,04,5.20
2019,10,01,10,05,5.30
2019,10,01,10,06,5.30
2019,10,01,10,07,5.40
2019,10,01,10,08,5.40
2019,10,01,10,09,5.50
2019,10,01,10,10,5.50
2019,10,01,10,11,5.50
2019,10,01,10,12,5.60
2019,10,01,10,13,5.70
2019,10,01,10,14,5.70
2019,10,01,10,15,5.80
2019,10,01,10,16,5.80
2019,10,01,10,17,5.80
2019,10,01,10,18,5.80
2019,10,01,10,19,5.80
2019,10,01,10,20,5.80
2019,10,01,10,21,5.90
2019,10,01,10,22,6.00
2019,10,01,10,23,6.00
2019,10,01,10,24,6.10
2019,10,01,10,25,6.10
2019,10,01,10,26,6.20
2019,10,01,10,27,6.30
2019,10,01,10,28,6.40
2019,10,01,10,29,6.40
2019,10,01,10,30,6.50
2019,10,01,10,31,6.60
2019,10,01,10,32,6.60
2019,10,01,10,33,6.60
2019,10,01,10,34,6.60
2019,10,01,10,35,6.60
2019,10,01,10,36,6.70
2019,10,01,10,37,6.70
2019,10,01,10,38,6.70
2019,10,01,10,39,6.70
2019,10,01,10,40,6.70
2019,10,01,10,41,6.80
2019,10,01,10,42,6.80
2019,10,01,10,43,6.90
2019,10,01,10,44,6.90
2019,10,01,10,45,7.00
2019,10,01,10,46,7.00
2019,10,01,10,47,7.10
2019,10,01,10,48,7.10
2019,10,01,10,49,7.20
2019,10,01,10,50,7.20
2019,10,01,10,51,7.30
2019,10,01,10,52,7.30
2019,10,01,10,53,7.40
2019,10,01,10,54,7.40
2019,10,01,10,55,7.50
2019,10,01,10,56,7.50
2019,10,01,10,57,7.60
2019,10,01,10,58,7.60
2019,10,01,10,59,7.70
2019,10,01,11,00,7.70
2019,10,01,11,01,7.80
2019,10,01,11,02,7.80
2019,10,01,11,03,7.80
2019,10,01,11,04,7.80
2019,10,01,11,05,7.80
2019,10,01,11,06,7.90
2019,10,01,11,07,7.90
2019,10,01,11,08,7.90
2019,10,01,11,09,8.00
2019,10,01,11,10,8.00
2019,10,01,11,11,8.10
2019,10,01,11,12,8.20
2019,10,01,11,13,8.20
2019,10,01,11,14,8.30
2019,10,01,11,15,8.30
2019,10,01,11,16,8.40
2019,10,01,11,17,8.40
2019,10,01,11,18,8.50
2019,10,01,11,19,8.60
2019,10,01,11,20,8.70
2019,10,01,11,21,8.80
2019,10,01,11,22,8.90
2019,10,01,11,23,9.00
2019,10,01,11,24,9.10
2019,10,01,11,25,9.20
2019,10,01,11,26,9.20
2019,10,01,11,27,9.30
2019,10,01,11,28,9.30
2019,10,01,11,29,9.40
2019,10,01,11,30,9.40
2019,10,01,11,31,9.50
2019,10,01,11,32,9.60
2019,10,01,11,33,9.70
2019,10,01,11,34,9.80
2019,10,01,11,35,9.90
2019,10,01,11,36,10.20
2019,10,01,11,37,10.40
2019,10,01,11,38,10.50
2019,10,01,11,39,10.70
2019,10,01,11,40,10.80
2019,10,01,11,41,11.00
2019,10,01,11,42,11.10
2019,10,01,11,43,11.20
2019,10,01,11,44,11.30
2019,10,01,11,45,11.30
2019,10,01,11,46,11.40
2019,10,01,11,47,11.40
2019,10,01,11,48,11.50
2019,10,01,11,49,11.50
2019,10,01,11,50,11.50
2019,10,01,11,51,11.60
2019,10,01,11,52,11.60
2019,10,01,11,53,11.50
2019,10,01,11,54,11.40
2019,10,01,11,55,11.40
2019,10,01,11,56,11.40
2019,10,01,11,57,11.30
2019,10,01,11,58,11.30
2019,10,01,11,59,11.40
2019,10,01,12,00,11.40
2019,10,01,12,01,11.40
2019,10,01,12,02,11.50
2019,10,01,12,03,11.50
2019,10,01,12,04,11.60
2019,10,01,12,05,11.60
2019,10,01,12,06,11.60
2019,10,01,12,07,11.70
2019,10,01,12,08,11.70
2019,10,01,12,09,11.80
2019,10,01,12,10,11.80
2019,10,01,12,11,11.90
2019,10,01,12,12,12.00
2019,10,01,12,13,12.00
2019,10,01,12,14,12.10
2019,10,01,12,15,12.20
2019,10,01,12,16,12.30
2019,10,01,12,17,12.40
2019,10,01,12,18,12.50
2019,10,01,12,19,12.50
2019,10,01,12,20,12.50
2019,10,01,12,21,12.50
2019,10,01,12,22,12.40
2019,10,01,12,23,12.40
2019,10,01,12,24,12.50
2019,10,01,12,25,12.50
2019,10,01,12,26,12.60
2019,10,01,12,27,12.60
2019,10,01,12,28,12.60
2019,10,01,12,29,12.70
2019,10,01,12,30,12.70
2019,10,01,12,31,12.70
2019,10,01,12,32,12.70
2019,10,01,12,33,12.70
2019,10,01,12,34,12.60
2019,10,01,12,35,12.60
2019,10,01,12,36,12.60
2019,10,01,12,37,12.60
2019,10,01,12,38,12.70
2019,10,01,12,39,12.80
2019,10,01,12,40,12.80
2019,10,01,12,41,12.90
2019,10,01,12,42,13.00
2019,10,01,12,43,13.00
2019,10,01,12,44,13.10
2019,10,01,12,45,13.20
2019,10,01,12,46,13.30
2019,10,01,12,47,13.30
2019,10,01,12,48,13.40
2019,10,01,12,49,13.40
2019,10,01,12,50,13.40
2019,10,01,12,51,13.50
2019,10,01,12,52,13.50
2019,10,01,12,53,13.60
2019,10,01,12,54,13.60
2019,10,01,12,55,13.70
2019,10,01,12,56,13.70
2019,10,01,12,57,13.70
2019,10,01,12,58,13.70
2019,10,01,12,59,13.70
2019,10,01,13,00,13.70
2019,10,01,13,01,13.70
2019,10,01,13,02,13.80
2019,10,01,13,03,13.80
2019,10,01,13,04,13.80
2019,10,01,13,05,13.80
2019,10,01,13,06,13.80
2019,10,01,13,07,13.80
2019,10,01,13,08,13.80
2019,10,01,13,09,13.80
2019,10,01,13,10,13.80
2019,10,01,13,11,13.80
2019,10,01,13,12,13.80
2019,10,01,13,13,13.70
2019,10,01,13,14,13.70
2019,10,01,13,15,13.60
2019,10,01,13,16,13.60
2019,10,01,13,17,13.70
2019,10,01,13,18,13.70
2019,10,01,13,19,13.80
2019,10,01,13,20,13.80
2019,10,01,13,21,13.80
2019,10,01,13,22,13.90
2019,10,01,13,23,13.90
2019,10,01,13,24,13.90
2019,10,01,13,25,13.80
2019,10,01,13,26,13.80
2019,10,01,13,27,13.90
2019,10,01,13,28,13.90
2019,10,01,13,29,13.90
2019,10,01,13,30,13.90
2019,10,01,13,31,13.90
2019,10,01,13,32,14.00
2019,10,01,13,33,14.10
2019,10,01,13,34,14.20
2019,10,01,13,35,14.20
2019,10,01,13,36,14.20
2019,10,01,13,37,14.30
2019,10,01,13,38,14.40
2019,10,01,13,39,14.50
2019,10,01,13,40,14.50
2019,10,01,13,41,14.60
2019,10,01,13,42,14.60
2019,10,01,13,43,14.60
2019,10,01,13,44,14.60
2019,10,01,13,45,14.60
2019,10,01,13,46,14.60
2019,10,01,13,47,14.70
2019,10,01,13,48,14.70
2019,10,01,13,49,14.80
2019,10,01,13,50,14.80
2019,10,01,13,51,14.80
2019,10,01,13,52,14.80
2019,10,01,13,53,14.80
2019,10,01,13,54,14.90
2019,10,01,13,55,14.80
2019,10,01,13,56,14.70
2019,10,01,13,57,14.60
2019,10,01,13,58,14.60
2019,10,01,13,59,14.60
2019,10,01,14,00,14.60
2019,10,01,14,01,14.60
2019,10,01,14,02,14.50
2019,10,01,14,03,14.50
2019,10,01,14,04,14.60
2019,10,01,14,05,14.70
2019,10,01,14,06,14.70
2019,10,01,14,07,14.70
2019,10,01,14,08,14.70
2019,10,01,14,09,14.70
2019,10,01,14,10,14.80
2019,10,01,14,11,14.80
2019,10,01,14,12,14.80
2019,10,01,14,13,14.80
2019,10,01,14,14,14.80
2019,10,01,14,15,14.80
2019,10,01,14,16,14.80
2019,10,01,14,17,14.80
2019,10,01,14,18,14.80
2019,10,01,14,19,14.80
2019,10,01,14,20,14.80
2019,10,01,14,21,14.80
2019,10,01,14,22,14.80
2019,10,01,14,23,14.80
2019,10,01,14,24,14.80
2019,10,01,14,25,14.80
2019,10,01,14,26,14.80
2019,10,01,14,27,14.80
2019,10,01,14,28,14.80
2019,10,01,14,29,14.80
2019,10,01,14,30,14.80
2019,10,01,14,31,14.70
2019,10,01,14,32,14.70
2019,10,01,14,33,14.70
2019,10,01,14,34,14.60
2019,10,01,14,35,14.60
2019,10,01,14,36,14.60
2019,10,01,14,37,14.60
2019,10,01,14,38,14.50
2019,10,01,14,39,14.50
2019,10,01,14,40,14.40
2019,10,01,14,41,14.50
2019,10,01,14,42,14.50
2019,10,01,14,43,14.50
2019,10,01,14,44,14.60
2019,10,01,14,45,14.50
2019,10,01,14,46,14.50
2019,10,01,14,47,14.50
2019,10,01,14,48,14.50
2019,10,01,14,49,14.50
2019,10,01,14,50,14.50
2019,10,01,14,51,14.60
2019,10,01,14,52,14.70
2019,10,01,14,53,14.70
2019,10,01,14,54,14.70
2019,10,01,14,55,14.60
2019,10,01,14,56,14.60
2019,10,01,14,57,14.60
2019,10,01,14,58,14.60
2019,10,01,14,59,14.60
2019,10,01,15,00,14.60
2019,10,01,15,01,14.60
2019,10,01,15,02,14.60
2019,10,01,15,03,14.60
2019,10,01,15,04,14.50
2019,10,01,15,05,14.50
2019,10,01,15,06,14.50
2019,10,01,15,07,14.50
2019,10,01,15,08,14.50
2019,10,01,15,09,14.50
2019,10,01,15,10,14.50
2019,10,01,15,11,14.50
2019,10,01,15,12,14.60
2019,10,01,15,13,14.60
2019,10,01,15,14,14.60
2019,10,01,15,15,14.60
2019,10,01,15,16,14.60
2019,10,01,15,17,14.60
2019,10,01,15,18,14.60
2019,10,01,15,19,14.60
2019,10,01,15,20,14.70
2019,10,01,15,21,14.70
2019,10,01,15,22,14.80
2019,10,01,15,23,14.80
2019,10,01,15,24,14.80
2019,10,01,15,25,14.80
2019,10,01,15,26,14.80
2019,10,01,15,27,14.80
2019,10,01,15,28,14.80
2019,10,01,15,29,14.70
2019,10,01,15,30,14.70
2019,10,01,15,31,14.60
2019,10,01,15,32,14.60
2019,10,01,15,33,14.70
2019,10,01,15,34,14.60
2019,10,01,15,35,14.60
2019,10,01,15,36,14.60
2019,10,01,15,37,14.60
2019,10,01,15,38,14.70
2019,10,01,15,39,14.70
2019,10,01,15,40,14.70
2019,10,01,15,41,14.80
2019,10,01,15,42,14.80
2019,10,01,15,43,14.80
2019,10,01,15,44,14.80
2019,10,01,15,45,14.70
2019,10,01,15,46,14.70
2019,10,01,15,47,14.70
2019,10,01,15,48,14.80
2019,10,01,15,49,14.80
2019,10,01,15,50,14.70
2019,10,01,15,51,14.70
2019,10,01,15,52,14.60
2019,10,01,15,53,14.60
2019,10,01,15,54,14.60
2019,10,01,15,55,14.60
2019,10,01,15,56,14.60
2019,10,01,15,57,14.60
2019,10,01,15,58,14.60
2019,10,01,15,59,14.60
2019,10,01,16,00,14.60
2019,10,01,16,01,14.60
2019,10,01,16,02,14.50
2019,10,01,16,03,14.50
2019,10,01,16,04,14.40
2019,10,01,16,05,14.40
2019,10,01,16,06,14.40
2019,10,01,16,07,14.40
2019,10,01,16,08,14.30
2019,10,01,16,09,14.30
2019,10,01,16,10,14.30
2019,10,01,16,11,14.30
2019,10,01,16,12,14.30
2019,10,01,16,13,14.30
2019,10,01,16,14,14.30
2019,10,01,16,15,14.20
2019,10,01,16,16,14.20
2019,10,01,16,17,14.20
2019,10,01,16,18,14.20
2019,10,01,16,19,14.20
2019,10,01,16,20,14.20
2019,10,01,16,21,14.20
2019,10,01,16,22,14.20
2019,10,01,16,23,14.20
2019,10,01,16,24,14.20
2019,10,01,16,25,14.20
2019,10,01,16,26,14.10
2019,10,01,16,27,14.10
2019,10,01,16,28,14.10
2019,10,01,16,29,14.10
2019,10,01,16,30,14.00
2019,10,01,16,31,13.90
2019,10,01,16,32,13.90
2019,10,01,16,33,13.90
2019,10,01,16,34,13.80
2019,10,01,16,35,13.80
2019,10,01,16,36,13.80
2019,10,01,16,37,13.80
2019,10,01,16,38,13.80
2019,10,01,16,39,13.80
2019,10,01,16,40,13.80
2019,10,01,16,41,13.80
2019,10,01,16,42,13.80
2019,10,01,16,43,13.70
2019,10,01,16,44,13.70
2019,10,01,16,45,13.70
2019,10,01,16,46,13.80
2019,10,01,16,47,13.80
2019,10,01,16,48,13.80
2019,10,01,16,49,13.80
2019,10,01,16,50,13.80
2019,10,01,16,51,13.80
2019,10,01,16,52,13.80
2019,10,01,16,53,13.80
2019,10,01,16,54,13.80
2019,10,01,16,55,13.90
2019,10,01,16,56,13.80
2019,10,01,16,57,13.80
2019,10,01,16,58,13.80
2019,10,01,16,59,13.80
2019,10,01,17,00,13.80
2019,10,01,17,01,13.80
2019,10,01,17,02,13.80
2019,10,01,17,03,13.80
2019,10,01,17,04,13.80
2019,10,01,17,05,13.80
2019,10,01,17,06,13.80
2019,10,01,17,07,13.80
2019,10,01,17,08,13.80
2019,10,01,17,09,13.90
2019,10,01,17,10,13.90
2019,10,01,17,11,13.80
2019,10,01,17,12,13.80
2019,10,01,17,13,13.80
2019,10,01,17,14,13.80
2019,10,01,17,15,13.80
2019,10,01,17,16,13.80
2019,10,01,17,17,13.80
2019,10,01,17,18,13.80
2019,10,01,17,19,13.80
2019,10,01,17,20,13.80
2019,10,01,17,21,13.80
2019,10,01,17,22,13.80
2019,10,01,17,23,13.80
2019,10,01,17,24,13.80
2019,10,01,17,25,13.80
2019,10,01,17,26,13.80
2019,10,01,17,27,13.70
2019,10,01,17,28,13.70
2019,10,01,17,29,13.70
2019,10,01,17,30,13.70
2019,10,01,17,31,13.80
2019,10,01,17,32,13.80
2019,10,01,17,33,13.80
2019,10,01,17,34,13.90
2019,10,01,17,35,13.90
2019,10,01,17,36,13.90
2019,10,01,17,37,13.90
2019,10,01,17,38,13.90
2019,10,01,17,39,14.00
2019,10,01,17,40,14.00
2019,10,01,17,41,14.00
2019,10,01,17,42,14.00
2019,10,01,17,43,14.00
2019,10,01,17,44,14.10
2019,10,01,17,45,14.10
2019,10,01,17,46,14.10
2019,10,01,17,47,14.10
2019,10,01,17,48,14.10
2019,10,01,17,49,14.10